DELTA 1 DEB, 6214

Orbit data source: Space-Track

DELTA 1 DEB, 6214 is space debris in SSO originally from a launch on Mon, 28 Feb 1966 UTC launched from the Air Force Eastern Test Range (AFETR). Debris objects in space refer to the collection of defunct objects orbiting the Earth. Examples of debris include non-operational satellites, rocket bodies, and fragments generated from explosions, collisions, or faulty payload assembly.

Loading next visibility...
Identifier
6214, 1966-016E
Orbit
SSO
Country
Flag of USUS
Related business
Manufacturer
Unknown
Mission
Spacecraft
Bus & Motor
Unknown
Mass
Unknown
Launch date (UTC)
1966-02-28 (60 years ago)
Launch vehicle
Unknown
Launch site
Air Force Eastern Test Range (AFETR)
Object type
Payload
Rocket body
Debris
Shape & HBR
Unknown shape, 0.1 m
Radar Cross Section
Small (<0.1 m²)

Expand to show TLE details & history
Last TLE update: 23 hours ago

TLE from 23 hours ago
0 DELTA 1 DEB
1  6214U 66016E   25288.95043552  .00000139  00000-0  10048-2 0  9998
2  6214 101.7506 281.6061 0119177 282.2617 103.6090 12.62734546744096
Epoch: 2025-10-15T22:48Z
TLE epoch observation values (Epoch: 2025-10-15T22:48:37.628Z)
Latitude
26.61352°
Longitude
-91.22084°
Altitude
1,437.525 km
Speed
7.135 km/s
True Right ascension
18h 22m 36s
True Declination
26° 29' 17"
Sunlit
Object was in daylight at epoch
Visualization orbit readout
Latitude
Unknown
Longitude
Unknown
Altitude
Unknown
Speed
Unknown
Apparent Right ascension
Unknown
Apparent Declination
Unknown
Sunlit
N/A
Visualization observer readout
Local Sidereal Time
16:19:53
Azimuth
Unknown
Elevation
Unknown
Doppler factor
Unknown
Orbital elements
Apogee altitude
1,502.015 km
Perigee altitude
1,316.4 km
Semi-major axis
7,787.345 km
Eccentricity
0.01192
Inclination
101.7506°
RAAN
281.6061°
Arg. of periapsis
282.2617°
True anomaly
104.93157°
Mean anomaly
103.609°
Eccentric anomaly
104.27076°
Mean motion
3.15834 °/min
Orbital period
113.98 mins
BSTAR
0.0010048
Loading maneuver chart data...
Computing Atmospheric mass density...
Loading historical data...
Loading historical data...
Loading historical data...
Loading historical data...
Loading historical data...
Loading historical data...
Loading historical data...
Other satellites on launch #16 in the year 1966 (1966-02-28 UTC)

Documentation

Showing up to 5 results
|